Marshfield, WI

4:52 AM CST on November 15, 2019 (GMT -0600)
Marshfield Municipal

Weather History for KMFI - September, 2019

Change the Weather History Date:

Monday, September 30, 2019

  Actual Average Record
Temperature  
Mean Temperature 68 °F -  
Max Temperature 82 °F 65 °F 82 °F (2019)
Min Temperature 55 °F 42 °F 23 °F (1918)
Cooling Degree Days 3    
Growing Degree Days 18 (Base 50)    
Moisture  
Dew Point 65 °F    
Average Humidity 89    
Maximum Humidity 100    
Minimum Humidity 72    
Precipitation  
Precipitation 0.07 in - - ()
Sea Level Pressure  
Sea Level Pressure 29.89 in    
Wind  
Wind Speed 11 mph (South)    
Max Wind Speed 17 mph    
Max Gust Speed 22 mph    
Visibility 6 miles    
Events Fog , Rain , Thunderstorm    
Averages and records for this station are not official NWS values.
T = Trace of Precipitation, MM = Missing Value Source: NWS Daily Summary

Daily Weather History Graph

Daily Weather History Graph

Search for Another Location

Airport or City:

Astronomy

Sep. 30, 2019 Rise Set
Actual Time 6:57 AM CDT 6:43 PM CDT
Civil Twilight 6:28 AM CDT 7:12 PM CDT
Nautical Twilight 5:54 AM CDT 7:46 PM CDT
Astronomical Twilight 5:19 AM CDT 8:20 PM CDT
Moon 9:05 AM CDT (9/30) 8:14 PM CDT (9/30)
Length of Visible Light 12h 44m
Length of Day
11h 46m
Waxing Crescent, 6% of the Moon is Illuminated
Sep 30
Waxing Crescent
Oct 5
First Quarter
Oct 13
Full
Oct 21
Last Quarter
Oct 27
New

Hourly Weather History & Observations

Time (CDT) Temp. Heat Index Dew Point Humidity Pressure Visibility Wind Dir Wind Speed Gust Speed Precip Events Conditions
12:07 AM 55.0 °F - 54.0 °F 96% 30.09 in 3.0 mi ESE 11.5 mph - 0.00 in   Overcast
12:54 AM 55.0 °F - 54.0 °F 96% 30.08 in 5.0 mi ESE 15.0 mph - 0.00 in   Overcast
1:26 AM 55.0 °F - 54.0 °F 96% 30.05 in 2.0 mi ESE 11.5 mph - N/A   Overcast
1:50 AM 55.4 °F - 53.6 °F 94% 30.04 in 3.0 mi ESE 10.4 mph - N/A   Overcast
1:54 AM 55.9 °F - 54.0 °F 93% 30.05 in 3.0 mi ESE 12.7 mph - N/A   Overcast
2:54 AM 55.9 °F - 55.0 °F 97% 30.03 in 4.0 mi SE 13.8 mph - 0.01 in Rain Light Rain
3:54 AM 57.0 °F - 55.0 °F 93% 30.01 in 9.0 mi SE 10.4 mph - 0.00 in   Overcast
4:26 AM 57.0 °F - 55.9 °F 96% 29.99 in 1.8 mi SE 10.4 mph - N/A   Overcast
4:37 AM 57.0 °F - 55.9 °F 96% 29.98 in 0.8 mi SE 12.7 mph - N/A   Overcast
4:54 AM 57.0 °F - 55.9 °F 96% 29.99 in 0.5 mi SE 11.5 mph - N/A Fog Fog
5:54 AM 57.9 °F - 57.0 °F 97% 29.98 in 0.2 mi SE 8.1 mph - N/A Fog Fog
6:54 AM 59.0 °F - 59.0 °F 100% 29.94 in 0.2 mi SSE 12.7 mph - 0.00 in Fog Fog
7:54 AM 62.1 °F - 61.0 °F 96% 29.93 in 0.2 mi South 10.4 mph - N/A Fog Fog
8:54 AM 64.0 °F - 63.0 °F 96% 29.89 in 0.8 mi South 16.1 mph - N/A   Overcast
9:20 AM 66.0 °F - 64.9 °F 96% 29.88 in 2.5 mi South 15.0 mph - N/A   Overcast
9:27 AM 66.0 °F - 64.9 °F 96% 29.88 in 3.0 mi South 17.3 mph - N/A   Overcast
9:54 AM 66.9 °F - 66.0 °F 97% 29.87 in 5.0 mi South 16.1 mph - N/A   Overcast
10:18 AM 68.0 °F - 66.0 °F 93% 29.86 in 6.0 mi South 12.7 mph - N/A   Overcast
10:25 AM 69.1 °F - 66.9 °F 93% 29.86 in 6.0 mi South 12.7 mph 21.9 mph N/A   Overcast
10:54 AM 69.1 °F - 66.9 °F 93% 29.86 in 7.0 mi South 11.5 mph - N/A   Overcast
11:40 AM 73.9 °F - 69.1 °F 85% 29.85 in 9.0 mi South 13.8 mph 19.6 mph N/A   Overcast
11:54 AM 75.9 °F - 69.1 °F 79% 29.83 in 10.0 mi South 13.8 mph - N/A   Overcast
12:11 PM 73.9 °F - 70.0 °F 87% 29.86 in 7.0 mi WSW 5.8 mph - 0.01 in Rain Light Rain
12:30 PM 73.9 °F - 70.0 °F 87% 29.86 in 1.8 mi West 3.5 mph - 0.04 in Rain Light Rain
12:43 PM 75.0 °F - 72.0 °F 90% 29.85 in 3.0 mi SW 3.5 mph - 0.06 in Rain Light Rain
12:54 PM 75.0 °F - 71.1 °F 87% 29.85 in 9.0 mi SW 3.5 mph - 0.06 in Thunderstorm Overcast
1:20 PM 75.0 °F - 71.1 °F 87% 29.85 in 8.0 mi Calm Calm - N/A   Overcast
1:40 PM 75.0 °F - 71.1 °F 87% 29.84 in 9.0 mi SSE 3.5 mph - N/A   Overcast
1:54 PM 75.9 °F - 72.0 °F 87% 29.82 in 9.0 mi South 5.8 mph - N/A   Overcast
2:54 PM 78.1 °F - 72.0 °F 81% 29.80 in 10.0 mi South 8.1 mph - N/A   Overcast
3:54 PM 81.0 °F 85.8 °F 73.0 °F 77% 29.78 in 10.0 mi South 8.1 mph - N/A   Mostly Cloudy
4:54 PM 81.0 °F 85.8 °F 73.0 °F 77% 29.77 in 10.0 mi South 6.9 mph - N/A   Overcast
5:54 PM 81.0 °F 84.9 °F 71.1 °F 72% 29.77 in 10.0 mi SSW 10.4 mph - N/A   Mostly Cloudy
6:54 PM 79.0 °F - 70.0 °F 74% 29.77 in 10.0 mi South 11.5 mph - N/A   Overcast
7:54 PM 77.0 °F - 70.0 °F 79% 29.78 in 10.0 mi South 9.2 mph - N/A   Overcast
8:54 PM 77.0 °F - 70.0 °F 79% 29.78 in 10.0 mi South 12.7 mph - N/A   Clear
9:54 PM 77.0 °F - 69.1 °F 76% 29.78 in 10.0 mi SSW 12.7 mph - N/A   Clear
10:54 PM 75.9 °F - 69.1 °F 79% 29.78 in 10.0 mi SSW 12.7 mph - N/A   Clear
11:54 PM 75.9 °F - 69.1 °F 79% 29.79 in 10.0 mi SW 10.4 mph - N/A   Partly Cloudy